Location: *
(50.5492°N, 7.7469°E)
Time: 07:13:03
(UTC+00:00)

STARLINK-29 - Pass Details

Date: 21 October 2019
Orbit: 438 x 448 km, 53.0° (Epoch: 19 November)

Event Time Altitude Azimuth Distance (km) Brightness Sun altitude
Rises 17:21:21 0° 290° (WNW) 2,433 8.2 -9.5°
Reaches altitude 10° 17:23:28 10° 289° (WNW) 1,563 7.1 -9.8°
Maximum altitude 17:26:58 77° 204° (SSW) 461 3.3 -10.4°
Enters shadow 17:30:06 13° 118° (ESE) 1,409 5.2 -10.9°
